Tracking 25648 objects as of 17-May-2022
HD Live streaming from Space Station
objects crossing your sky now

FREGAT DEB

Track FREGAT DEB now!
10-day predictions


NORAD ID: 46243
Int'l Code: 2011-037KD
Perigee: 1,393.9 km
Apogee: 4,477.6 km
Inclination: 51.4 °
Period: 148.9 minutes
Semi major axis: 9306 km
RCS: Unknown
Launch date: July 18, 2011
Source: Commonwealth of Independent States (former USSR) (CIS)
Launch site: TYURATAM MISSILE AND SPACE COMPLEX (TTMTR)

Note: This is SATELLITE DEBRIS
aabbcc
Your satellite tracking list
Your tracking list is empty




NASA's NSSDC Master Catalog

Two Line Element Set (TLE):
1 46243U 11037KD  22116.86895021  .00030313  00000-0  81703+0 0  9990
2 46243  51.4465 280.7768 1656669 199.0555 154.0288  9.66951902 59758
Source of the keplerian elements: AFSPC